Regional Weather Roundup
Issued by NWS

Home | Current Version | Previous Version | Graphics & Text | Print | Product List | Glossary On
Versions: 1 2 3 4 5 6 7 8 9 10 11 12 13 14 15 16 17 18 19 20 21 22 23 24 25 26 27 28 29 30 31 32 33 34 35 36 37 38 39 40 41 42 43 44 45 46 47 48 49 50
000
ASUS43 KOAX 221810
RWRNE

WEATHER ROUNDUP FOR NEBRASKA
NATIONAL WEATHER SERVICE OMAHA NE
100 PM CDT FRI SEP 22 2017

NOTES: SATELLITE DATA IS BEING USED TO AUGMENT CLOUD COVER ABOVE
       12000 FEET.
       "FAIR" INDICATES FEW OR NO CLOUDS BELOW 12,000 FEET WITH NO
       SIGNIFICANT WEATHER AND/OR OBSTRUCTIONS TO VISIBILITY.


NEZ001>004-019>022-054>056-221900-
NEBRASKA PANHANDLE

CITY           SKY/WX    TMP DP  RH WIND       PRES   REMARKS
SCOTTSBLUFF    SUNNY     64  42  44 VRB6      29.84S
6HR MIN TEMP:  43; 6HR MAX TEMP:  64;

ALLIANCE       SUNNY     66  44  45 N10       29.82S
6HR MIN TEMP:  44; 6HR MAX TEMP:  67;

CHADRON        SUNNY     65  38  36 VRB7      29.83S
6HR MIN TEMP:  41; 6HR MAX TEMP:  65;

GORDON         FAIR      62  44  52 NW10G21   29.83R
6HR MIN TEMP:  46; 6HR MAX TEMP:  62;

KIMBALL        SUNNY     64  43  46 N5        29.86R
SIDNEY         CLOUDY    66  44  45 N6        29.83S
6HR MIN TEMP:  44; 6HR MAX TEMP:  67;

$$

NEZ057>060-069>072-079>082-221900-
SOUTHWEST NEBRASKA

CITY           SKY/WX    TMP DP  RH WIND       PRES   REMARKS
NORTH PLATTE   SUNNY     90  55  30 S12       29.73S
6HR MIN TEMP:  73; 6HR MAX TEMP:  90;

IMPERIAL       PTSUNNY   81  41  24 VRB6      29.77F
6HR MIN TEMP:  60; 6HR MAX TEMP:  81;

LEXINGTON      SUNNY     94  56  27 S23G29    29.74S HX  92
MCCOOK         LGT RAIN  96  52  22 S25G38    29.73F HX  93
6HR MIN TEMP:  74; 6HR MAX TEMP:  97; 6HR PCP: TRACE;

OGALLALA       MOSUNNY   75  42  31 CALM      29.78S
$$

NEZ005>010-023>029-035>040-094-221900-
NORTH CENTRAL NEBRASKA

CITY           SKY/WX    TMP DP  RH WIND       PRES   REMARKS
VALENTINE      SUNNY     71  50  47 W14       29.77R
6HR MIN TEMP:  51; 6HR MAX TEMP:  72;

AINSWORTH      SUNNY     73  52  48 W14       29.76R
BROKEN BOW     SUNNY     92  59  33 SW22G33   29.73F HX  91
6HR MIN TEMP:  74; 6HR MAX TEMP:  92;

O`NEILL        SUNNY     90  65  44 S21G29    29.71S HX  91
ORD            SUNNY     91  61  36 S17G32    29.72S HX  91
6HR MIN TEMP:  75; 6HR MAX TEMP:  91;

THEDFORD       SUNNY     78  54  43 NW8       29.77S
$$

NEZ041-046>049-061>064-073>077-083>087-221900-
SOUTH CENTRAL NEBRASKA

CITY           SKY/WX    TMP DP  RH WIND       PRES   REMARKS
GRAND ISLAND   SUNNY     93  65  39 S24G32    29.77F HX  95
6HR MIN TEMP:  75; 6HR MAX TEMP:  93;

AURORA         SUNNY     89  64  43 S22G31    29.79S HX  91
HASTINGS       SUNNY     92  62  36 S20G30    29.79F HX  92
6HR MIN TEMP:  75; 6HR MAX TEMP:  92;

HEBRON         SUNNY     91  66  43 S16G28    29.83S HX  94
HOLDREGE       MOSUNNY   91  56  30 S24G33    29.76F
KEARNEY        SUNNY     92  62  36 S25G41    29.76S HX  92
YORK           SUNNY     91  66  43 S23G31    29.80F HX  94
$$

NEZ011>018-030>034-042>045-221900-
NORTHEAST NEBRASKA

CITY           SKY/WX    TMP DP  RH WIND       PRES   REMARKS
NORFOLK        SUNNY     91  68  46 S21G29    29.73S HX  95
6HR MIN TEMP:  75; 6HR MAX TEMP:  91;

ALBION         SUNNY     90  68  48 S20G28    29.75S HX  94
BLAIR          SUNNY     90  69  50 S22G31    29.83F HX  94
COLUMBUS       SUNNY     92  68  45 S21G29    29.78F HX  96
FREMONT        SUNNY     90  67  46 S18G31    29.81F HX  93
TEKAMAH        SUNNY     91  69  48 S22G28    29.80F HX  96
6HR MIN TEMP:  76; 6HR MAX TEMP:  91;

WAYNE          SUNNY     87  70  56 S20G31    29.76S HX  91
$$

NEZ050>053-065>068-078-088>093-221900-
SOUTHEAST NEBRASKA

CITY           SKY/WX    TMP DP  RH WIND       PRES   REMARKS
LINCOLN        SUNNY     93  67  42 S24       29.82F HX  96
6HR MIN TEMP:  75; 6HR MAX TEMP:  94;

OMAHA EPPLEY   MOSUNNY   90  71  53 SE22      29.83F HX  96
6HR MIN TEMP:  77; 6HR MAX TEMP:  90;

BEATRICE       SUNNY     92  70  49 S17G26    29.85S HX  97
FALLS CITY     SUNNY     88  70  55 S17G25    29.89F HX  93
6HR MIN TEMP:  75; 6HR MAX TEMP:  88;

NEBRASKA CITY  SUNNY     89  71  55 S18G25    29.88S HX  96
PLATTSMOUTH    SUNNY     91  72  52 SE16G23   29.86S HX  98
$$

NEZ044-045-051>053-067-221900-
OMAHA AREA

CITY           SKY/WX    TMP DP  RH WIND       PRES   REMARKS
OMAHA EPPLEY   MOSUNNY   90  71  53 SE22      29.83F HX  96
6HR MIN TEMP:  77; 6HR MAX TEMP:  90;

BLAIR          SUNNY     90  69  50 S22G31    29.83F HX  94
FREMONT        SUNNY     90  67  46 S18G31    29.81F HX  93
MILLARD        SUNNY     93  71  48 S14G23    29.83F HX  99
OFFUTT AFB     SUNNY     90  71  52 SE15G24   29.84F HX  96
PLATTSMOUTH    SUNNY     91  72  52 SE16G23   29.86S HX  98
WAHOO          FAIR      92  66  42 S21       29.82S HX  95
$$




USA.gov is the U.S. government's official web portal to all federal, state and local government web resources and services.